Location: Duac?
(36.9744°N, 30.6500°E)
Time: 12:55:13
(UTC+00:00)

Spot 2 Rocket - Pass Details

Date: 05 August 2024
Orbit: 753 x 769 km, 98.4° (Epoch: 11 September)

Event Time Altitude Azimuth Distance (km) Brightness Sun altitude
Exits shadow 19:38:25 64° 226° (SW) 848 3.6 -26.4°
Maximum altitude 19:38:51 67° 258° (WSW) 827 3.6 -26.5°
Drops below altitude 10° 19:43:55 10° 341° (NNW) 2,304 6.8 -27.1°
Sets 19:46:14 0° 345° (NNW) 3,231 7.8 -27.4°
